Noatak, AK

11:07 AM AKDT on March 30, 2017 (GMT -0800)
Noatak

Weather History for PAWN - December, 2013

Change the Weather History Date:

Sunday, December 29, 2013

  Actual Average Record
Temperature  
Mean Temperature -1 °F -  
Max Temperature 14 °F 0 °F 28 °F (2014)
Min Temperature -16 °F -8 °F -41 °F (1999)
Degree Days  
Heating Degree Days 66    
Moisture  
Dew Point -7 °F    
Average Humidity 76    
Maximum Humidity 100    
Minimum Humidity 56    
Precipitation  
Precipitation 0.00 in - - ()
Sea Level Pressure  
Sea Level Pressure 30.01 in    
Wind  
Wind Speed 1 mph (NNE)    
Max Wind Speed 6 mph    
Max Gust Speed -    
Visibility 9 miles    
Events      
Averages and records for this station are not official NWS values.
T = Trace of Precipitation, MM = Missing Value Source: NWS Daily Summary

Daily Weather History Graph

Daily Weather History Graph

Search for Another Location

Airport or City:

Trip Planner

Search our weather history database for the weather conditions in past years. The results will help you decide how hot, cold, wet, or windy it might be!

Date:

Astronomy

Dec. 29, 2013 Rise Set
Actual Time 1:31 PM AKST 2:17 PM AKST
Civil Twilight 11:04 AM AKST 4:44 PM AKST
Nautical Twilight 9:39 AM AKST 6:09 PM AKST
Astronomical Twilight 8:30 AM AKST 7:18 PM AKST
Moon 8:45 AM AKST (12/29) 1:44 PM AKST (12/29)
Length of Visible Light 5h 39m
Length of Day
0h 46m
Waning Crescent, 10% of the Moon is Illuminated
Dec 29
Waning Crescent
Jan 1
New
Jan 7
First Quarter
Jan 15
Full
Jan 23
Last Quarter

Hourly Weather History & Observations

Time (AKST) Temp. Windchill Dew Point Humidity Pressure Visibility Wind Dir Wind Speed Gust Speed Precip Events Conditions
12:16 AM -16.6 °F - -23.8 °F 70% 30.05 in 5.0 mi Calm Calm - N/A   Overcast
12:36 AM -16.6 °F - -23.8 °F 70% 30.05 in 5.0 mi Calm Calm - N/A   Overcast
12:56 AM -14.8 °F - -23.8 °F 64% 30.05 in 4.0 mi Calm Calm - N/A   Overcast
1:16 AM -14.8 °F - -23.8 °F 64% 30.06 in 5.0 mi Calm Calm - N/A   Overcast
1:36 AM -14.8 °F - -23.8 °F 64% 30.06 in 6.0 mi Calm Calm - N/A   Overcast
1:56 AM -14.8 °F - -23.8 °F 64% 30.06 in 5.0 mi Calm Calm - N/A   Overcast
2:16 AM -14.8 °F - -22.0 °F 70% 30.06 in 8.0 mi Calm Calm - N/A   Overcast
2:36 AM -14.8 °F - -22.0 °F 70% 30.06 in 5.0 mi Calm Calm - N/A   Overcast
2:56 AM -13.0 °F - -20.2 °F 70% 30.06 in 7.0 mi Calm Calm - N/A   Overcast
3:16 AM -13.0 °F - -20.2 °F 70% 30.06 in 5.0 mi Calm Calm - N/A   Overcast
3:36 AM -11.2 °F - -20.2 °F 64% 30.06 in 5.0 mi Calm Calm - N/A   Overcast
3:56 AM -11.2 °F - -20.2 °F 64% 30.06 in 5.0 mi Calm Calm - N/A   Overcast
4:16 AM -11.2 °F - -18.4 °F 70% 30.06 in 6.0 mi Calm Calm - N/A   Overcast
4:36 AM -11.2 °F - -18.4 °F 70% 30.06 in 5.0 mi Calm Calm - N/A   Overcast
4:56 AM -11.2 °F - -18.4 °F 70% 30.05 in 10.0 mi Calm Calm - N/A   Overcast
5:16 AM -11.2 °F - -18.4 °F 70% 30.05 in 10.0 mi Calm Calm - N/A   Overcast
5:36 AM -9.4 °F - -18.4 °F 65% 30.04 in 10.0 mi Calm Calm - N/A   Overcast
5:56 AM -9.4 °F - -16.6 °F 71% 30.04 in 10.0 mi Calm Calm - N/A   Overcast
6:16 AM -9.4 °F - -16.6 °F 71% 30.04 in 10.0 mi Calm Calm - N/A   Overcast
6:36 AM -9.4 °F - -16.6 °F 71% 30.04 in 10.0 mi Calm Calm - N/A   Overcast
6:56 AM -7.6 °F - -16.6 °F 65% 30.04 in 10.0 mi Calm Calm - N/A   Overcast
7:16 AM -7.6 °F - -14.8 °F 71% 30.04 in 10.0 mi Calm Calm - N/A   Overcast
7:36 AM -7.6 °F - -16.6 °F 65% 30.04 in 10.0 mi Calm Calm - N/A   Overcast
7:56 AM -7.6 °F - -14.8 °F 71% 30.04 in 10.0 mi Calm Calm - N/A   Overcast
8:16 AM -7.6 °F - -14.8 °F 71% 30.04 in 10.0 mi Calm Calm - N/A   Overcast
8:36 AM -7.6 °F - -14.8 °F 71% 30.04 in 10.0 mi Calm Calm - N/A   Overcast
8:56 AM -7.6 °F - -14.8 °F 71% 30.03 in 10.0 mi Calm Calm - N/A   Overcast
9:16 AM -7.6 °F - -14.8 °F 71% 30.04 in 10.0 mi Calm Calm - N/A   Overcast
9:36 AM -5.8 °F - -13.0 °F 71% 30.03 in 10.0 mi Calm Calm - N/A   Overcast
9:56 AM -5.8 °F - -11.2 °F 77% 30.03 in 10.0 mi Calm Calm - N/A   Overcast
10:16 AM -5.8 °F - -11.2 °F 77% 30.03 in 10.0 mi Calm Calm - N/A   Overcast
10:36 AM -5.8 °F - -11.2 °F 77% 30.03 in 10.0 mi Calm Calm - N/A   Overcast
10:56 AM -4.0 °F - -11.2 °F 71% 30.03 in 10.0 mi Calm Calm - N/A   Overcast
11:16 AM -2.2 °F - -11.2 °F 66% 30.03 in 10.0 mi Calm Calm - N/A   Overcast
11:36 AM -2.2 °F - -9.4 °F 71% 30.03 in 10.0 mi Calm Calm - N/A   Overcast
11:56 AM -2.2 °F - -9.4 °F 71% 30.03 in 10.0 mi Calm Calm - N/A   Overcast
12:16 PM -2.2 °F - -11.2 °F 66% 30.03 in 10.0 mi Calm Calm - N/A   Overcast
12:36 PM -2.2 °F - -7.6 °F 78% 30.02 in 10.0 mi Calm Calm - N/A   Overcast
12:56 PM -2.2 °F - -9.4 °F 71% 30.02 in 10.0 mi Calm Calm - N/A   Overcast
1:16 PM -0.4 °F - -9.4 °F 66% 30.02 in 10.0 mi Calm Calm - N/A   Overcast
1:36 PM -0.4 °F - -2.2 °F 92% 30.02 in 10.0 mi Calm Calm - N/A   Overcast
1:56 PM -0.4 °F - -9.4 °F 66% 30.01 in 9.0 mi Calm Calm - N/A   Overcast
2:16 PM 1.4 °F - 1.4 °F 100% 30.01 in 10.0 mi Calm Calm - N/A   Overcast
2:36 PM 1.4 °F - -11.2 °F 56% 30.01 in 10.0 mi Calm Calm - N/A   Overcast
2:56 PM 1.4 °F - -2.2 °F 85% 30.00 in 10.0 mi Calm Calm - N/A   Overcast
3:16 PM 1.4 °F - -2.2 °F 85% 30.00 in 10.0 mi Calm Calm - N/A   Overcast
3:36 PM 3.2 °F -4.2 °F -2.2 °F 78% 30.00 in 10.0 mi North 3.5 mph - N/A   Overcast
3:56 PM 3.2 °F - -0.4 °F 85% 29.99 in 6.0 mi Calm Calm - N/A   Overcast
4:16 PM 5.0 °F - 1.4 °F 85% 29.99 in 7.0 mi Calm Calm - N/A   Overcast
4:36 PM 6.8 °F -0.1 °F 1.4 °F 79% 29.98 in 10.0 mi North 3.5 mph - N/A   Overcast
4:56 PM 6.8 °F -2.0 °F 1.4 °F 79% 29.98 in 8.0 mi NNE 4.6 mph - N/A   Overcast
5:16 PM 6.8 °F -0.1 °F 1.4 °F 79% 29.97 in 10.0 mi NE 3.5 mph - N/A   Overcast
5:36 PM 6.8 °F -2.0 °F 3.2 °F 85% 29.97 in 10.0 mi NNE 4.6 mph - N/A   Overcast
5:56 PM 6.8 °F -3.5 °F 3.2 °F 85% 29.97 in 10.0 mi North 5.8 mph - N/A   Overcast
6:16 PM 8.6 °F -1.3 °F 3.2 °F 79% 29.96 in 10.0 mi NNE 5.8 mph - N/A   Overcast
6:36 PM 8.6 °F -1.3 °F 5.0 °F 85% 29.96 in 10.0 mi North 5.8 mph - N/A   Overcast
6:56 PM 8.6 °F 0.1 °F 5.0 °F 85% 29.96 in 10.0 mi NNE 4.6 mph - N/A   Overcast
7:16 PM 8.6 °F 2.0 °F 5.0 °F 85% 29.96 in 10.0 mi NNE 3.5 mph - N/A   Overcast
7:36 PM 8.6 °F 0.1 °F 1.4 °F 73% 29.95 in 10.0 mi NNE 4.6 mph - N/A   Overcast
7:56 PM 10.4 °F 4.0 °F 6.8 °F 85% 29.95 in 10.0 mi NNE 3.5 mph - N/A   Overcast
8:16 PM 10.4 °F 4.0 °F 6.8 °F 85% 29.95 in 10.0 mi North 3.5 mph - N/A   Overcast
8:36 PM 10.4 °F 4.0 °F 8.6 °F 92% 29.95 in 10.0 mi North 3.5 mph - N/A   Overcast
8:56 PM 10.4 °F 4.0 °F 8.6 °F 92% 29.94 in 10.0 mi NNE 3.5 mph - N/A   Overcast
9:16 PM 12.2 °F 2.9 °F 8.6 °F 85% 29.94 in 5.0 mi North 5.8 mph - N/A   Overcast
9:36 PM 12.2 °F 2.9 °F 10.4 °F 92% 29.94 in 7.0 mi North 5.8 mph - N/A   Overcast
9:56 PM 12.2 °F 4.3 °F 10.4 °F 92% 29.94 in 9.0 mi North 4.6 mph - N/A   Overcast
10:16 PM 12.2 °F 4.3 °F 10.4 °F 92% 29.93 in 10.0 mi North 4.6 mph - N/A   Overcast
10:36 PM 14.0 °F 8.2 °F 10.4 °F 86% 29.93 in 9.0 mi North 3.5 mph - N/A   Overcast
10:56 PM 14.0 °F - 10.4 °F 86% 29.92 in 10.0 mi Calm Calm - N/A   Overcast
11:16 PM 14.0 °F - 10.4 °F 86% 29.92 in 10.0 mi Calm Calm - N/A   Overcast
11:36 PM 14.0 °F - 10.4 °F 86% 29.92 in 10.0 mi Calm Calm - N/A   Overcast
11:56 PM 14.0 °F - 12.2 °F 93% 29.91 in 10.0 mi Calm Calm - N/A   Overcast